CZ-2D R/B

Last updated on Sat Aug 15 2026 00:02:08 GMT+0000 (Coordinated Universal Time)

1 28738U 05024B 26226.55613699 .00055202 00000+0 34832-3 0 9997 2 28738 97.3452 249.1906 0005984 130.7619 229.4167 15.76466834164512
UTC large
Height (km)
Speed (km/s)
/
Latitude / Longitude
Inclination (degrees)
Orbital Period (minutes)
Azimuth
Elevation
Range (km)
Doppler Factor

Next 0 passes for location: London (51.5072 / 0.1276)

No passes found over London.
CZ-2D R/B